7 * 24
多渠道服务支持
STARLINK-37282(NORAD编号69190)是美国SpaceX公司星链(Starlink)低轨互联网卫星星座的组成卫星,隶属于星链全球组网项目。星链计划旨在构建覆盖全球的低成本天基高速通信系统,总规划规模近4.2万颗卫星,该卫星运行于近地轨道,主要为全球范围内偏远地区网络接入、应急通信、商业宽带服务提供支撑,同时具备潜在军事应用价值,可协助提供战场通信与态势感知支持。随着星链组网进入常态化高密度发射阶段,该卫星与其他星链卫星一同推动了低轨通信星座的全球覆盖能力升级,是当前全球低轨卫星互联网建设的典型节点。
美国
(US)
| 数据来源 | 国际轨道数据 |
| 星历时间: | 2026-06-12T12:53:28+0800 17小时前 查看轨道信息 |
| 半长轴: | 6713.961km |
| 偏心率: | 0.0001775 |
| 轨道倾角: | 53.159° |
| 近地点辐角 | 31.936° |
| 升交点赤经 | 227.233° |
| 平近点角 | 328.177° |
| 近地点: | 334.632km |
| 远地点: | 337.016km |
| 周期: | 91.249分钟 |
| 每日圈数: | 15.781001 |